Regional Weather Roundup
Issued by NWS

Home | Current Version | Previous Version | Text Only | Print | Product List | Glossary Off
Versions: 1 2 3 4 5 6 7 8 9 10 11 12 13 14 15 16 17 18 19 20 21 22 23 24 25 26 27 28 29 30 31 32 33 34 35 36 37 38 39 40 41 42 43 44 45 46 47 48 49 50

000
ASUS43 KMKX 041400
RWRWI

WISCONSIN REGIONAL WEATHER ROUNDUP
NATIONAL WEATHER SERVICE MILWAUKEE/SULLIVAN WI
900 AM CDT FRI SEP 04 2015

NOTE: "FAIR" INDICATES FEW OR NO CLOUDS BELOW 12,000 FEET WITH NO
SIGNIFICANT WEATHER AND/OR OBSTRUCTIONS TO VISIBILITY.

WIZ001-002-006>008-014>016-023>028-041500-
NORTHWEST WISCONSIN

CITY           SKY/WX    TMP DP  RH WIND       PRES   REMARKS
SUPERIOR ARPT  CLOUDY    60  59  96 NE8       30.01S
ASHLAND        SUNNY     65  64  97 E5        30.02F
HAYWARD        CLOUDY    70  62  76 S8        30.03R
SIREN          CLOUDY    73  65  77 SE12G20   29.97F
CUMBERLAND     CLOUDY    68  63  83 SE8       30.01S
RICE LAKE      CLOUDY    69  64  81 SE10      30.02S
CHETEK         CLOUDY    69  65  85 SE7       30.02R
LADYSMITH      SUNNY     67  63  86 SE8       30.05S
EAU CLAIRE     NOT AVBL
MENOMONIE      SUNNY     72  67  83 E8        30.00S
NEW RICHMOND   SUNNY     72  64  77 SE10      29.97S
OSCEOLA        SUNNY     72  66  81 SE10G17   29.99S
$$

WIZ003>005-009-010-017-018-041500-
NORTH CENTRAL WISCONSIN

CITY           SKY/WX    TMP DP  RH WIND       PRES   REMARKS
MANITOWISH WTR SUNNY     65  64  99 SE3       30.08S
ARBOR VITAE    SUNNY     67  64  90 E9        30.08S
WOODRUFF       SUNNY     67  64  90 E9        30.08S
RHINELANDER    SUNNY     65  62  90 E7        30.09S
EAGLE RIVER    SUNNY     65  62  89 SE6       30.08S
LAND O LAKES   SUNNY     66  63  90 SE5       30.10S
PHILLIPS       SUNNY     66  63  89 SE6       30.05S
TOMAHAWK       SUNNY     63  62  97 E3        30.07F
MEDFORD        PTSUNNY   64  63  97 E6        30.05F
MERRILL        SUNNY     62  62 100 E5        30.07S
$$

WIZ029-030-035-036-043>047-041500-
CENTRAL WISCONSIN

CITY           SKY/WX    TMP DP  RH WIND       PRES   REMARKS
WAUSAU         PTSUNNY   66  62  87 SE6       30.04S
MOSINEE        CLOUDY    64  64 100 SE6       30.07R FOG
MARSHFIELD     FOG       65  62  90 E8        30.05R VSB 1
STEVENS POINT  CLOUDY    63  63 100 E5        30.06S FOG
WAUPACA        CLOUDY    67  66  97 CALM      30.04S FOG
WAUTOMA        NOT AVBL
WISC RAPIDS    CLOUDY    65  62  90 E8        30.05S
CAMP DOUGLAS   NOT AVBL
$$

WIZ011>013-019>022-031-037>040-048>050-041500-
NORTHEAST WISCONSIN

CITY           SKY/WX    TMP DP  RH WIND       PRES   REMARKS
ANTIGO         SUNNY     66  64  91 E6        30.08S
SHAWANO        NOT AVBL
OCONTO         MOSUNNY   66  66 100 W3        30.04S
STURGEON BAY   SUNNY     70  64  83 NE5       30.05S
GREEN BAY      CLOUDY    68  65  90 NE8       30.04S
MANITOWOC      NOT AVBL
APPLETON       CLOUDY    66  66 100 N7        30.02S FOG
CLINTONVILLE   CLOUDY    64  63  94 N5        30.05R
OSHKOSH        CLOUDY    69  64  84 N8        30.02S
$$

WIZ032>034-041-042-053>061-041500-
SOUTHWEST WISCONSIN

CITY           SKY/WX    TMP DP  RH WIND       PRES   REMARKS
LA CROSSE      SUNNY     74  67  78 E7        29.99S
SPARTA         CLOUDY    71  63  76 E5        30.02S
VIROQUA          N/A     71  69  94 SE9       30.03R
BOSCOBEL       SUNNY     76  68  76 NE5       30.01R
PRAIRIE DU CHI SUNNY     72  67  83 E5        29.99S
PLATTEVILLE    SUNNY     72  69  90 E9        30.01R
$$

WIZ056-057-062-063-064-067-068-041500-
SOUTH CENTRAL WISCONSIN

CITY           SKY/WX    TMP DP  RH WIND       PRES   REMARKS
REEDSBURG      CLOUDY    69  66  90 E5        30.03R
BARABOO/DELLS  CLOUDY    68  64  86 E6        30.04R
LONE ROCK      NOT AVBL
MINERAL POINT  SUNNY     72  68  88 E8        30.03R
MADISON        CLOUDY    70  65  84 NE3       30.03R HAZE
MIDDLETON      PTSUNNY   72  68  89 E3        30.03R
WATERTOWN      CLOUDY    64  64 100 NE7       30.03R FOG
MONROE         SUNNY     72  68  88 SE3       30.03R
JANESVILLE     MOSUNNY   73  70  88 CALM      30.02R FOG
$$

WIZ051-052-058>065-066-070>072-041500-
SOUTHEAST WISCONSIN

CITY           SKY/WX    TMP DP  RH WIND       PRES   REMARKS
MILWAUKEE      CLOUDY    68  64  87 W5        30.02S
WAUKESHA       CLOUDY    64  63  94 NE3       30.04S FOG
MILWAUKEE/TIMM CLOUDY    68  63  83 N5        30.03R
RACINE         CLOUDY    69  64  84 N7        30.04R
BURLINGTON     CLOUDY    67  64  90 E5        30.02S
KENOSHA        CLOUDY    67  64  90 NE3       30.04R FOG
FOND DU LAC    CLOUDY    70  65  84 NE5       30.03R
SHEBOYGAN      CLOUDY    68  66  93 NE9       30.02R
WEST BEND      CLOUDY    66  64  94 CALM      30.03R
JUNEAU         CLOUDY    64  63  97 NE8       30.04S FOG
$$

LSZ147-162-041500-
LAKE SUPERIOR

STATION/POSITION TIME  TEMP    WIND        PRES    WAVE
                       AIR SEA DIR/SP/G            HT/PER
                 (UTC) (F)     (DEG/KT/KT) (MB)    (FT/S)
W MID LAKE BUOY  1250   60 56   90/ 10/ 10 1017.5R   0
DEVILS ISLAND    1300   61      80/  6/  7 1017.0R
PORT WING        1300   56      CALM  /  2 1016.6
SAXON HARBOR     1300   58        CALM     1016.6R
$$

LMZ867-665-643>646-041500-
LAKE MICHIGAN

STATION/POSITION TIME  TEMP    WIND        PRES    WAVE
                       AIR SEA DIR/SP/G            HT/PER
                 (UTC) (F)     (DEG/KT/KT) (MB)    (FT/S)
CHAMBERS ISLAND  1300   69      10/  6/  8 1016.9R
S GREEN BAY BUOY 1300   65 66  350/  4/  6 1018.2R
N MID LAKE BUOY  1250   68 66   80/ 12/ 14 1016.2R   2/ 4
NORTHPORT PIER   1300   67      70/ 11/ 13 1016.6R
SISTER BAY       1311   72     150/  4/  8   N/A
ALGOMA LAKESHORE 1314          330/  2/  5   N/A
KEWAUNEE LAKESHO 1300   66      10/  5/  7 1015.8R
SHEBOYGAN LAKESH 1300   65     360/ 13/ 14 1016.5R
PORT WASHINGTON  1300   69     360/  3/  5 1016.9R
ATWATER BUOY     1300   61     310/  4/  4 1017.7R
MILWAUKEE LAKESH 1310   67      10/  4/  5   N/A
S MID LAKE BUOY  1250   65 71  320/  8/ 10 1015.5R   1/ 4
KENOSHA   LAKESH 1300   63      10/  5/  6 1016.3R
$$

TC  - TEMPERATURE IN CELSIUS
VSB - VISIBILITY IN STATUTE MILES
WCI - WIND CHILL INDEX
HX  - HEAT INDEX



USA.gov is the U.S. government's official web portal to all federal, state and local government web resources and services.